Mobridge, SD

12:32 AM CDT on May 29, 2017 (GMT -0500)
Mobridge Municipal

Weather History for KMBG - March, 2013

Change the Weather History Date:

Friday, March 15, 2013

  Actual Average Record
Temperature  
Mean Temperature 27 °F 31 °F  
Max Temperature 38 °F 42 °F 79 °F (2015)
Min Temperature 15 °F 21 °F -10 °F (1997)
Degree Days  
Heating Degree Days 38 34  
Month to date heating degree days 546 551  
Since 1 July heating degree days 6362 6526  
Cooling Degree Days 0 0  
Month to date cooling degree days 0 0  
Year to date cooling degree days 0 0  
Moisture  
Dew Point 21 °F    
Average Humidity 84    
Maximum Humidity 92    
Minimum Humidity 75    
Precipitation  
Precipitation T in 0.03 in 0.32 in (1946)
Month to date precipitation 0.08 0.37  
Year to date precipitation 1.04 1.10  
Snow  
Snow 0.00 in - - ()
Month to date snowfall 1.5  
Since 1 July snowfall 25.8  
Snow Depth 0.00 in    
Sea Level Pressure  
Sea Level Pressure 29.96 in    
Wind  
Wind Speed 10 mph (NE)    
Max Wind Speed 20 mph    
Max Gust Speed 28 mph    
Visibility 9 miles    
Events      
T = Trace of Precipitation, MM = Missing Value Source: NWS Daily Summary

Daily Weather History Graph

Daily Weather History Graph

Search for Another Location

Airport or City:

Trip Planner

Search our weather history database for the weather conditions in past years. The results will help you decide how hot, cold, wet, or windy it might be!

Date:

Astronomy

Mar. 15, 2013 Rise Set
Actual Time 7:53 AM CDT 7:47 PM CDT
Civil Twilight 7:24 AM CDT 8:17 PM CDT
Nautical Twilight 6:49 AM CDT 8:52 PM CDT
Astronomical Twilight 6:14 AM CDT 9:27 PM CDT
Moon 9:32 AM CDT (3/15) No Moon Set
Length of Visible Light 12h 53m
Length of Day
11h 54m
Waxing Crescent, 15% of the Moon is Illuminated
Mar 15
Waxing Crescent
Mar 19
First Quarter
Mar 27
Full
Apr 2
Last Quarter
Apr 10
New

Hourly Weather History & Observations

Time (CDT) Temp. Windchill Dew Point Humidity Pressure Visibility Wind Dir Wind Speed Gust Speed Precip Events Conditions
12:52 AM 37.9 °F 29.2 °F 33.1 °F 83% 29.93 in 10.0 mi ENE 15.0 mph 28.8 mph N/A   Overcast
1:35 AM 35.6 °F 25.9 °F 30.2 °F 81% 29.94 in 10.0 mi NE 16.1 mph - N/A   Overcast
1:52 AM 34.0 °F 23.4 °F 30.0 °F 85% 29.94 in 9.0 mi ENE 17.3 mph 24.2 mph N/A   Overcast
2:25 AM 33.8 °F 24.8 °F 28.4 °F 81% 29.94 in 6.0 mi NNE 12.7 mph 20.7 mph N/A   Overcast
2:47 AM 32.0 °F 22.1 °F 28.4 °F 87% 29.93 in 6.0 mi NE 13.8 mph - N/A   Overcast
2:52 AM 32.0 °F 21.6 °F 28.9 °F 88% 29.96 in 6.0 mi NE 15.0 mph 20.7 mph N/A   Overcast
3:52 AM 30.9 °F 20.7 °F 28.0 °F 89% 29.95 in 7.0 mi NE 13.8 mph 19.6 mph N/A   Overcast
4:07 AM 30.2 °F 20.8 °F 26.6 °F 86% 29.92 in 7.0 mi ENE 11.5 mph - N/A   Overcast
4:52 AM 28.9 °F 18.6 °F 24.1 °F 82% 29.95 in 10.0 mi NE 12.7 mph - N/A   Overcast
5:05 AM 28.4 °F 18.0 °F 24.8 °F 86% 29.93 in 10.0 mi NE 12.7 mph - N/A   Overcast
5:52 AM 26.1 °F 17.6 °F 21.9 °F 84% 29.92 in 10.0 mi ENE 8.1 mph - N/A   Partly Cloudy
6:22 AM 26.6 °F 17.5 °F 21.2 °F 80% 29.92 in 10.0 mi NE 9.2 mph - N/A   Mostly Cloudy
6:52 AM 26.1 °F 20.5 °F 21.9 °F 84% 29.94 in 10.0 mi Variable 4.6 mph - N/A   Overcast
7:52 AM 24.1 °F 12.5 °F 19.9 °F 84% 29.96 in 10.0 mi NE 12.7 mph - N/A   Overcast
8:52 AM 23.0 °F 11.7 °F 19.0 °F 85% 29.97 in 10.0 mi NE 11.5 mph - N/A   Overcast
9:52 AM 23.0 °F 13.9 °F 18.0 °F 81% 29.96 in 10.0 mi ENE 8.1 mph - N/A   Overcast
10:41 AM 24.8 °F 19.1 °F 19.4 °F 80% 29.92 in 10.0 mi ENE 4.6 mph - N/A   Overcast
10:52 AM 24.1 °F 17.0 °F 19.0 °F 81% 29.97 in 10.0 mi ENE 5.8 mph - N/A   Overcast
11:52 AM 25.0 °F 14.8 °F 19.0 °F 78% 29.94 in 10.0 mi East 10.4 mph - N/A   Overcast
12:52 PM 26.1 °F 18.4 °F 21.0 °F 81% 29.95 in 10.0 mi East 6.9 mph - N/A   Overcast
1:52 PM 27.0 °F 23.0 °F 21.0 °F 78% 29.95 in 10.0 mi North 3.5 mph - N/A   Overcast
2:39 PM 28.4 °F - 21.2 °F 74% 29.87 in 10.0 mi Calm Calm - N/A   Overcast
2:52 PM 28.0 °F 20.8 °F 21.9 °F 78% 29.93 in 10.0 mi NNW 6.9 mph - N/A   Overcast
3:52 PM 28.0 °F 21.7 °F 21.0 °F 75% 29.92 in 10.0 mi North 5.8 mph - N/A   Overcast
4:52 PM 28.9 °F 21.9 °F 21.0 °F 72% 29.91 in 10.0 mi NNE 6.9 mph - N/A   Overcast
5:52 PM 28.9 °F 20.4 °F 21.0 °F 72% 29.95 in 10.0 mi NNE 9.2 mph - N/A   Overcast
6:52 PM 28.0 °F 17.0 °F 21.0 °F 75% 29.97 in 10.0 mi NNE 13.8 mph - N/A   Overcast
7:52 PM 25.0 °F 13.1 °F 19.9 °F 81% 29.98 in 8.0 mi NNE 13.8 mph - N/A   Overcast
8:14 PM 24.8 °F 14.6 °F 19.4 °F 80% 29.93 in 10.0 mi NNE 10.4 mph - N/A   Overcast
8:28 PM 23.0 °F 11.7 °F 17.6 °F 80% 29.95 in 10.0 mi NNE 11.5 mph - N/A   Overcast
8:52 PM 19.9 °F 7.9 °F 16.0 °F 85% 30.06 in 10.0 mi NNE 11.5 mph - N/A   Overcast
9:52 PM 19.0 °F 4.5 °F 14.0 °F 81% 30.10 in 10.0 mi North 16.1 mph - N/A   Overcast
10:39 PM 17.6 °F 4.3 °F 12.2 °F 79% 30.03 in 10.0 mi North 12.7 mph - N/A   Overcast
10:52 PM 18.0 °F 6.1 °F 12.9 °F 81% 30.12 in 10.0 mi North 10.4 mph - N/A   Overcast
11:02 PM 17.6 °F 5.7 °F 12.2 °F 79% 30.04 in 10.0 mi North 10.4 mph - N/A   Overcast
11:52 PM 17.1 °F 3.0 °F 12.0 °F 81% 30.13 in 10.0 mi North 13.8 mph - N/A   Overcast